Showing default

INTELSAT 11 (PAS 11), 32253

Orbit data source: Space-Track

INTELSAT 11 (PAS 11), 32253 is a payload satellite owned by Intelsat Ltd (US) (US) in GEO that was launched on Fri, 05 Oct 2007 UTC via an ARIANE 5GS launch vehicle from the French Guiana (FRGUI). Payload-class satellites include a variety of spacecraft equipped with specific instruments for various scientific and technological missions. These include communications satellites like Starlink; space stations such as the ISS; scientific satellites like the Hubble; Earth observation satellites from companies like Planet Labs, Umbra, and HawkEye 360; GPS; miniature CubeSats for education and research; and military/defense satellites.

Not visible in the next 10 days
Identifier
32253, 2007-044B
Orbit
GEO
Last TLE update
15 hours ago
Origin
Manufacturer
OSC
Mission
On reserve Commercial Communications
Bus & Motor
OSC STAR 2.4, BT-4
Mass
2,450 kg wet, 1,145 kg dry
Launch date (UTC)
2007-10-05 (18 years ago)
Launch vehicle
ARIANE 5GS
Launch site
French Guiana (FRGUI)
Object type
Payload
Rocket body
Debris
Shape & HBR
Box + 2 Pan, Unknown HBR
Radar Cross Section
24.482 m², Large (>1 m²)

Expand to show TLE details & history

TLE from 15 hours ago
0 INTELSAT 11 (PAS 11)
1 32253U 07044B   25191.74157997 -.00000101  00000-0  00000-0 0  9990
2 32253   2.6725  82.9513 0004633  78.2440 221.9837  0.99052058 65065
Epoch: 2025-07-10T17:47Z
TLE epoch observation values (Epoch: 2025-07-10T17:47:52.509Z)
Latitude
-2.3186°
Longitude
-172.69589°
Altitude
36,146.413 km
Speed
3.061 km/s
True Right ascension
01h 32m 42s
True Declination
-2° 18' 59"
Sunlit
Object was in daylight at epoch
Visualization orbit readout
Latitude
0.93746°
Longitude
46.36768°
Altitude
36,128.377 km
Speed
3.062 km/s
Apparent Right ascension
15h 43m 12s
Apparent Declination
-4° 41' 45"
Sunlit
Object is in daylight
Visualization observer readout
Local Sidereal Time
20:49:43
Azimuth
257.742° W
Elevation
7.136°
Doppler factor
1
Orbital elements
Apogee altitude
36,152.787 km
Perigee altitude
36,113.396 km
Semi-major axis
42,511.228 km
Eccentricity
0.00046
Inclination
2.6725°
RAAN
82.9513°
Arg. of periapsis
78.244°
True anomaly
Unknown
Mean anomaly
221.9837°
Eccentric anomaly
Unknown
Mean motion
0.24762 °/min
Orbital period
1,453.83 mins
BSTAR
0
Loading historical data...
32253 neighbors
Loading maneuver chart data...
Loading SW <> Apogee altitude chart data...
Loading historical data...
Loading historical data...
Loading historical data...
Loading historical data...
Loading historical data...
Loading historical data...
Loading historical data...
Other satellites on launch #44 in the year 2007 (2007-10-05 UTC)

INTELSAT 11 (PAS 11) Visibility

Observer location: undefined°, undefined°

INTELSAT 11 (PAS 11) is likely not visible in the next few days
Span
Click to sort rows by Start time (UTC) header in descending order
Start Az.
Max El. time (UTC)
Max El. Az.
Max El.
End time (UTC)
End Az.
|